Regional Weather Roundup
Issued by NWS Glasgow, MT

Home | Current Version | Previous Version | Text Only | Print | Product List | Glossary On
Versions: 1 2 3 4 5 6 7 8 9 10 11 12 13 14 15 16 17 18 19 20 21 22 23 24 25 26 27 28 29 30 31 32 33 34 35 36 37 38 39 40 41 42 43 44 45 46 47 48 49 50
000
ASUS45 KGGW 270515
RWRGGW
HOURLY WEATHER ROUNDUP FOR NORTHEAST MONTANA
NATIONAL WEATHER SERVICE GLASGOW MONTANA
1100 PM MDT SUN APR 26 2015

NOTE: "FAIR" INDICATES FEW OR NO CLOUDS BELOW 12,000 FEET WITH NO
SIGNIFICANT WEATHER AND/OR OBSTRUCTIONS TO VISISBILITY.

NORTHEAST MONTANA


CITY           SKY/WX    TMP DP  RH WIND       PRES   REMARKS
GLASGOW        LGT RAIN  41  35  79 W5        30.25R
PLENTYWOOD       N/A    N/A N/A N/A N8          N/A
WOLF POINT     LGT RAIN  43  37  79 W6        30.25R
JORDAN           N/A     38  35  89 W7        30.26R
WINNETT          N/A     35  32  88 W5          N/A
SIDNEY         CLOUDY    45  39  81 W10       30.22R
GLENDIVE       CLOUDY    39  36  87 NW10      30.24R
MALTA            N/A     39  33  79 W5          N/A
SCOBEY           N/A     40  31  70 CALM      30.20
OPHEIM           N/A     36  32  87 W6        30.19R

FORT PECK REPORTS


CITY           SKY/WX    TMP DP  RH WIND       PRES   REMARKS
FORT PECK        N/A     40  35  83 W5          N/A
THE PINES        N/A     40  36  86 W2          N/A

SOUTHEAST MONTANA


CITY           SKY/WX    TMP DP  RH WIND       PRES   REMARKS
BILLINGS       CLOUDY    37  34  89 S3        30.28R
MILES CITY     LGT RAIN  38  36  92 NW6       30.26R
BAKER          LGT RAIN  41  39  93 NW12      30.21S
LIVINGSTON     CLOUDY    37  33  85 NE6       30.24R

CENTRAL MONTANA


CITY           SKY/WX    TMP DP  RH WIND       PRES   REMARKS
HAVRE          CLEAR     33  27  78 S3        30.25R
LEWISTOWN      MOCLDY    34  31  88 CALM      30.25S
GREAT FALLS    CLEAR     33  28  81 S6        30.23S
CUT BANK       CLEAR     34  27  75 S6        30.20S
HELENA         CLEAR     33  30  88 W7        30.26R
BUTTE          PTCLDY    32  28  85 SE3       30.25R
BOZEMAN        CLOUDY    38  34  85 SW6       30.26R

WESTERN MONTANA


CITY           SKY/WX    TMP DP  RH WIND       PRES   REMARKS
MISSOULA       CLOUDY    41  39  93 S5        30.28R
KALISPELL      NOT AVBL

NORTH DAKOTA


CITY           SKY/WX    TMP DP  RH WIND       PRES   REMARKS
WILLISTON      LGT RAIN  45  36  70 N10       30.21R
DICKINSON      LGT RAIN  43  41  93 NW3       30.16R FOG
MINOT          CLOUDY    47  45  93 SW3       30.17R
BISMARCK       CLOUDY    48  45  89 N3        30.17R FOG

SOUTHERN SASKATCHEWAN


CITY           SKY/WX    TMP DP  RH WIND       PRES   REMARKS
REGINA         CLOUDY    37  34  87 NW6       30.23R
ESTEVAN        CLOUDY    41  34  75 NW9       30.20F
SWIFT CURRENT  MOCLDY    36  34  93 S8        30.20S



USA.gov is the U.S. government's official web portal to all federal, state and local government web resources and services.